NBL94 YWLM-NZAA

Flight info

Callsign NBL94
Flight time 2h 28m
Altitude 41000
Route YWLM/12 N0489F410 LIMLO1 LIMLO DCT 35S57 DCT RUNOD DCT LUNBI ARAD7B NZAA/05R
Aircraft B789/H-SDE1E2E3FGHIJ2J3J4J5M1RWXY/LB1D1

Departure

Time 2026-04-22 04:45
Airport Newcastle Airport (YWLM)

Arrival

Time 2026-04-22 07:13
Airport Auckland International Airport (NZAA)
Time Latitude Longitude Altitude Speed Heading
2026-04-22 04:45 -32.96068 151.83891 9212 ft 267 kts 174°
2026-04-22 04:45 -32.97943 151.84066 10330 ft 274 kts 174°
2026-04-22 04:45 -32.99887 151.84256 11184 ft 288 kts 174°
2026-04-22 04:45 -33.01947 151.84448 11958 ft 305 kts 174°
2026-04-22 04:46 -33.04121 151.84652 12668 ft 323 kts 174°
2026-04-22 04:46 -33.06418 151.84870 13488 ft 337 kts 174°
2026-04-22 04:46 -33.08782 151.85094 14454 ft 344 kts 174°
2026-04-22 04:46 -33.11187 151.85320 15437 ft 349 kts 174°
2026-04-22 04:47 -33.13621 151.85550 16447 ft 352 kts 174°
2026-04-22 04:47 -33.16065 151.85831 17467 ft 354 kts 169°
2026-04-22 04:47 -33.18412 151.86755 18472 ft 357 kts 155°
2026-04-22 04:47 -33.20510 151.88312 19326 ft 363 kts 143°
2026-04-22 04:48 -33.22285 151.90496 20141 ft 372 kts 130°
2026-04-22 04:48 -33.23597 151.93251 20960 ft 384 kts 117°
2026-04-22 04:48 -33.24568 151.96212 21677 ft 391 kts 117°
2026-04-22 04:48 -33.25549 151.99312 22389 ft 397 kts 116°
2026-04-22 04:49 -33.26527 152.02421 23094 ft 402 kts 117°
2026-04-22 04:49 -33.27530 152.05561 23787 ft 408 kts 117°
2026-04-22 04:49 -33.28536 152.08710 24350 ft 413 kts 117°
2026-04-22 04:49 -33.29560 152.11931 24908 ft 417 kts 117°
2026-04-22 04:50 -33.30593 152.15195 25459 ft 422 kts 117°
2026-04-22 04:50 -33.31638 152.18498 25997 ft 427 kts 117°
2026-04-22 04:50 -33.32696 152.21835 26536 ft 431 kts 117°
2026-04-22 04:50 -33.33764 152.25211 27067 ft 435 kts 117°
2026-04-22 04:51 -33.34839 152.28614 27590 ft 440 kts 117°
2026-04-22 04:51 -33.35919 152.32054 28103 ft 444 kts 117°
2026-04-22 04:51 -33.37019 152.35521 28592 ft 448 kts 117°
2026-04-22 04:51 -33.38120 152.39022 29115 ft 452 kts 117°
2026-04-22 04:52 -33.39217 152.42511 29598 ft 456 kts 117°
2026-04-22 04:52 -33.40339 152.46081 30079 ft 460 kts 117°
2026-04-22 04:52 -33.41468 152.49683 30524 ft 464 kts 117°
2026-04-22 04:52 -33.42607 152.53317 30948 ft 468 kts 117°
2026-04-22 04:53 -33.43754 152.56983 31349 ft 471 kts 117°
2026-04-22 04:53 -33.44910 152.60677 31730 ft 475 kts 117°
2026-04-22 04:53 -33.46073 152.64399 32111 ft 479 kts 117°
2026-04-22 04:53 -33.47241 152.68147 32469 ft 482 kts 117°
2026-04-22 04:54 -33.48416 152.71922 32821 ft 486 kts 117°
2026-04-22 04:54 -33.49601 152.75730 33180 ft 489 kts 117°
2026-04-22 04:54 -33.50791 152.79557 33503 ft 492 kts 117°
2026-04-22 04:54 -33.51988 152.83416 33878 ft 496 kts 117°
2026-04-22 04:55 -33.53191 152.87301 34277 ft 497 kts 117°
2026-04-22 04:55 -33.54391 152.91180 34701 ft 496 kts 117°
2026-04-22 04:55 -33.55588 152.95054 35117 ft 495 kts 117°
2026-04-22 04:55 -33.56784 152.98925 35522 ft 495 kts 117°
2026-04-22 04:56 -33.57978 153.02797 35908 ft 495 kts 117°
2026-04-22 04:56 -33.59171 153.06671 36296 ft 495 kts 117°
2026-04-22 04:56 -33.60363 153.10548 36645 ft 496 kts 117°
2026-04-22 04:56 -33.61558 153.14438 37020 ft 497 kts 117°
2026-04-22 04:57 -33.62737 153.18279 37342 ft 498 kts 117°
2026-04-22 04:57 -33.63934 153.22188 37681 ft 498 kts 117°
2026-04-22 04:57 -33.65130 153.26098 38018 ft 499 kts 117°
2026-04-22 04:57 -33.66328 153.30019 38348 ft 500 kts 117°
2026-04-22 04:58 -33.67524 153.33938 38672 ft 500 kts 117°
2026-04-22 04:58 -33.68720 153.37863 38977 ft 501 kts 117°
2026-04-22 04:58 -33.69917 153.41796 39247 ft 502 kts 117°
2026-04-22 04:58 -33.71114 153.45734 39525 ft 502 kts 117°
2026-04-22 04:59 -33.72296 153.49630 39771 ft 503 kts 116°
2026-04-22 04:59 -33.73509 153.53631 40035 ft 503 kts 116°
2026-04-22 04:59 -33.74691 153.57533 40284 ft 504 kts 116°
2026-04-22 04:59 -33.75889 153.61497 40534 ft 505 kts 116°
2026-04-22 05:00 -33.77087 153.65464 40782 ft 505 kts 116°
2026-04-22 05:00 -33.78285 153.69437 41027 ft 506 kts 116°
2026-04-22 05:00 -33.79484 153.73420 41269 ft 507 kts 115°
2026-04-22 05:01 -33.81849 153.81306 41270 ft 493 kts 115°
2026-04-22 05:01 -33.84195 153.89103 41280 ft 498 kts 115°
2026-04-22 05:02 -33.86126 153.95587 41274 ft 493 kts 115°
2026-04-22 05:02 -33.88452 154.03369 41257 ft 495 kts 115°
2026-04-22 05:03 -33.90770 154.11168 41270 ft 494 kts 115°
2026-04-22 05:03 -33.93081 154.18955 41269 ft 494 kts 115°
2026-04-22 05:04 -33.95385 154.26742 41266 ft 494 kts 115°
2026-04-22 05:04 -33.97685 154.34536 41266 ft 494 kts 115°
2026-04-22 05:05 -33.99979 154.42330 41269 ft 493 kts 114°
2026-04-22 05:05 -34.02263 154.50113 41266 ft 492 kts 114°
2026-04-22 05:06 -34.04543 154.57898 41263 ft 492 kts 114°
2026-04-22 05:06 -34.06818 154.65690 41261 ft 493 kts 114°
2026-04-22 05:07 -34.09093 154.73503 41255 ft 494 kts 114°
2026-04-22 05:07 -34.11365 154.81329 41256 ft 494 kts 114°
2026-04-22 05:08 -34.13631 154.89154 41261 ft 494 kts 114°
2026-04-22 05:08 -34.15891 154.96978 41262 ft 494 kts 114°
2026-04-22 05:09 -34.18158 155.04848 41263 ft 497 kts 113°
2026-04-22 05:09 -34.20421 155.12732 41262 ft 496 kts 113°
2026-04-22 05:10 -34.22663 155.20554 41261 ft 496 kts 113°
2026-04-22 05:10 -34.24906 155.28435 41263 ft 496 kts 113°
2026-04-22 05:11 -34.26967 155.36399 41254 ft 495 kts 115°
2026-04-22 05:11 -34.29486 155.44155 41259 ft 497 kts 113°
2026-04-22 05:12 -34.31589 155.52131 41252 ft 498 kts 113°
2026-04-22 05:12 -34.33896 155.60007 41253 ft 497 kts 113°
2026-04-22 05:13 -34.36088 155.67937 41239 ft 495 kts 112°
2026-04-22 05:13 -34.38320 155.75813 41230 ft 495 kts 113°
2026-04-22 05:14 -34.40525 155.83712 41233 ft 496 kts 112°
2026-04-22 05:14 -34.42733 155.91614 41238 ft 495 kts 113°
2026-04-22 05:15 -34.44940 155.99534 41241 ft 495 kts 112°
2026-04-22 05:15 -34.47132 156.07434 41241 ft 494 kts 112°
2026-04-22 05:16 -34.49321 156.15331 41240 ft 495 kts 112°
2026-04-22 05:16 -34.51495 156.23207 41239 ft 496 kts 112°
2026-04-22 05:17 -34.53690 156.31179 41238 ft 493 kts 112°
2026-04-22 05:17 -34.55845 156.39029 41237 ft 494 kts 112°
2026-04-22 05:18 -34.59094 156.50904 41235 ft 494 kts 112°
2026-04-22 05:18 -34.61254 156.58826 41240 ft 495 kts 112°
2026-04-22 05:19 -34.63407 156.66752 41229 ft 494 kts 112°
2026-04-22 05:19 -34.65558 156.74686 41228 ft 494 kts 112°
2026-04-22 05:20 -34.67699 156.82608 41223 ft 494 kts 112°
2026-04-22 05:20 -34.69834 156.90532 41238 ft 494 kts 111°
2026-04-22 05:21 -34.71968 156.98475 41219 ft 494 kts 111°
2026-04-22 05:21 -34.74091 157.06401 41214 ft 493 kts 111°
2026-04-22 05:22 -34.76214 157.14347 41215 ft 494 kts 111°
2026-04-22 05:22 -34.78331 157.22299 41240 ft 494 kts 111°
2026-04-22 05:23 -34.80442 157.30251 41218 ft 492 kts 111°
2026-04-22 05:23 -34.82531 157.38139 41216 ft 493 kts 111°
2026-04-22 05:24 -34.84626 157.46078 41212 ft 493 kts 111°
2026-04-22 05:24 -34.86717 157.54023 41213 ft 493 kts 111°
2026-04-22 05:25 -34.88808 157.61994 41213 ft 493 kts 111°
2026-04-22 05:25 -34.90888 157.69947 41213 ft 493 kts 111°
2026-04-22 05:26 -34.92964 157.77905 41214 ft 492 kts 111°
2026-04-22 05:26 -34.95036 157.85873 41209 ft 493 kts 111°
2026-04-22 05:27 -34.97106 157.93859 41203 ft 495 kts 110°
2026-04-22 05:27 -34.99162 158.01813 41203 ft 494 kts 110°
2026-04-22 05:28 -35.01221 158.09802 41202 ft 494 kts 110°
2026-04-22 05:28 -35.03273 158.17792 41206 ft 494 kts 110°
2026-04-22 05:29 -35.05327 158.25810 41205 ft 495 kts 110°
2026-04-22 05:29 -35.07371 158.33820 41207 ft 494 kts 110°
2026-04-22 05:30 -35.09413 158.41840 41205 ft 494 kts 110°
2026-04-22 05:30 -35.11446 158.49852 41200 ft 494 kts 110°
2026-04-22 05:31 -35.13474 158.57868 41205 ft 494 kts 110°
2026-04-22 05:31 -35.15499 158.65899 41204 ft 494 kts 110°
2026-04-22 05:32 -35.17516 158.73923 41198 ft 494 kts 110°
2026-04-22 05:32 -35.19529 158.81954 41199 ft 494 kts 110°
2026-04-22 05:33 -35.21541 158.90008 41201 ft 496 kts 110°
2026-04-22 05:33 -35.23551 158.98083 41203 ft 497 kts 110°
2026-04-22 05:34 -35.25548 159.06126 41201 ft 496 kts 109°
2026-04-22 05:34 -35.27557 159.14245 41200 ft 495 kts 109°
2026-04-22 05:35 -35.29539 159.22276 41191 ft 497 kts 109°
2026-04-22 05:35 -35.31535 159.30397 41187 ft 497 kts 109°
2026-04-22 05:36 -35.33521 159.38497 41191 ft 496 kts 109°
2026-04-22 05:36 -35.35498 159.46592 41194 ft 497 kts 109°
2026-04-22 05:37 -35.37476 159.54709 41197 ft 498 kts 109°
2026-04-22 05:37 -35.39440 159.62804 41199 ft 498 kts 109°
2026-04-22 05:38 -35.41408 159.70934 41197 ft 499 kts 109°
2026-04-22 05:38 -35.43377 159.79102 41197 ft 499 kts 109°
2026-04-22 05:39 -35.45336 159.87249 41210 ft 498 kts 108°
2026-04-22 05:39 -35.47290 159.95405 41193 ft 499 kts 108°
2026-04-22 05:40 -35.49242 160.03585 41195 ft 500 kts 109°
2026-04-22 05:40 -35.51185 160.11745 41196 ft 498 kts 108°
2026-04-22 05:41 -35.53120 160.19902 41202 ft 500 kts 108°
2026-04-22 05:41 -35.55063 160.28119 41190 ft 501 kts 108°
2026-04-22 05:42 -35.56993 160.36316 41197 ft 500 kts 108°
2026-04-22 05:42 -35.58909 160.44469 41197 ft 501 kts 108°
2026-04-22 05:43 -35.60845 160.52743 41192 ft 502 kts 108°
2026-04-22 05:43 -35.62766 160.60973 41184 ft 502 kts 108°
2026-04-22 05:44 -35.64666 160.69154 41181 ft 501 kts 108°
2026-04-22 05:44 -35.66590 160.77457 41192 ft 502 kts 108°
2026-04-22 05:45 -35.68487 160.85672 41192 ft 499 kts 108°
2026-04-22 05:45 -35.70377 160.93884 41191 ft 502 kts 108°
2026-04-22 05:46 -35.72262 161.02103 41194 ft 502 kts 108°
2026-04-22 05:46 -35.74146 161.10351 41194 ft 501 kts 107°
2026-04-22 05:47 -35.75720 161.17258 41195 ft 501 kts 108°
2026-04-22 05:47 -35.77908 161.26893 41198 ft 505 kts 107°
2026-04-22 05:48 -35.79477 161.33834 41187 ft 501 kts 107°
2026-04-22 05:48 -35.81342 161.42102 41188 ft 503 kts 107°
2026-04-22 05:49 -35.83207 161.50403 41190 ft 505 kts 107°
2026-04-22 05:49 -35.85067 161.58708 41192 ft 502 kts 107°
2026-04-22 05:50 -35.86903 161.66940 41191 ft 504 kts 107°
2026-04-22 05:50 -35.88752 161.75257 41191 ft 504 kts 107°
2026-04-22 05:51 -35.90593 161.83567 41195 ft 502 kts 107°
2026-04-22 05:51 -35.92428 161.91882 41193 ft 502 kts 107°
2026-04-22 05:52 -35.94264 162.00226 41195 ft 502 kts 107°
2026-04-22 05:52 -35.96086 162.08543 41193 ft 502 kts 107°
2026-04-22 05:53 -35.97909 162.16889 41187 ft 503 kts 107°
2026-04-22 05:53 -35.99715 162.25195 41189 ft 501 kts 107°
2026-04-22 05:54 -36.01521 162.33525 41189 ft 501 kts 107°
2026-04-22 05:54 -36.03326 162.41876 41193 ft 504 kts 106°
2026-04-22 05:55 -36.05123 162.50234 41195 ft 503 kts 106°
2026-04-22 05:55 -36.06914 162.58584 41188 ft 503 kts 106°
2026-04-22 05:56 -36.08706 162.66974 41192 ft 507 kts 107°
2026-04-22 05:56 -36.10486 162.75342 41182 ft 503 kts 106°
2026-04-22 05:57 -36.12267 162.83734 41188 ft 504 kts 106°
2026-04-22 05:57 -36.14042 162.92141 41190 ft 503 kts 106°
2026-04-22 05:58 -36.15780 163.00467 41179 ft 503 kts 103°
2026-04-22 05:58 -36.17278 163.08958 41186 ft 507 kts 105°
2026-04-22 05:59 -36.18798 163.17458 41190 ft 503 kts 103°
2026-04-22 05:59 -36.20277 163.25938 41185 ft 507 kts 104°
2026-04-22 06:00 -36.21782 163.34464 41185 ft 503 kts 103°
2026-04-22 06:00 -36.23259 163.42968 41183 ft 507 kts 104°
2026-04-22 06:01 -36.24747 163.51507 41175 ft 504 kts 103°
2026-04-22 06:01 -36.26211 163.59986 41175 ft 505 kts 103°
2026-04-22 06:02 -36.27684 163.68530 41180 ft 506 kts 103°
2026-04-22 06:02 -36.29129 163.76974 41178 ft 504 kts 103°
2026-04-22 06:03 -36.30587 163.85505 41180 ft 506 kts 103°
2026-04-22 06:03 -36.32031 163.94015 41176 ft 504 kts 103°
2026-04-22 06:04 -36.33478 164.02561 41177 ft 507 kts 103°
2026-04-22 06:04 -36.34905 164.11048 41170 ft 503 kts 103°
2026-04-22 06:05 -36.36331 164.19551 41169 ft 504 kts 103°
2026-04-22 06:05 -36.37752 164.28079 41163 ft 504 kts 103°
2026-04-22 06:06 -36.39167 164.36597 41168 ft 504 kts 102°
2026-04-22 06:06 -36.40576 164.45124 41168 ft 504 kts 102°
2026-04-22 06:07 -36.41972 164.53614 41171 ft 505 kts 102°
2026-04-22 06:07 -36.43370 164.62154 41167 ft 504 kts 102°
2026-04-22 06:08 -36.44758 164.70672 41162 ft 503 kts 102°
2026-04-22 06:08 -36.46148 164.79239 41165 ft 503 kts 102°
2026-04-22 06:09 -36.47518 164.87729 41165 ft 505 kts 102°
2026-04-22 06:09 -36.48891 164.96276 41169 ft 504 kts 102°
2026-04-22 06:10 -36.50257 165.04820 41166 ft 504 kts 102°
2026-04-22 06:10 -36.51617 165.13370 41160 ft 505 kts 102°
2026-04-22 06:11 -36.52972 165.21931 41161 ft 505 kts 102°
2026-04-22 06:11 -36.54326 165.30520 41164 ft 506 kts 102°
2026-04-22 06:12 -36.55670 165.39093 41164 ft 505 kts 102°
2026-04-22 06:12 -36.57007 165.47665 41161 ft 504 kts 102°
2026-04-22 06:13 -36.58334 165.56212 41160 ft 503 kts 102°
2026-04-22 06:13 -36.59659 165.64787 41163 ft 504 kts 101°
2026-04-22 06:14 -36.60977 165.73367 41171 ft 506 kts 101°
2026-04-22 06:14 -36.62291 165.81959 41172 ft 505 kts 101°
2026-04-22 06:15 -36.63592 165.90505 41170 ft 503 kts 101°
2026-04-22 06:15 -36.64886 165.99052 41170 ft 502 kts 101°
2026-04-22 06:16 -36.66173 166.07599 41172 ft 503 kts 101°
2026-04-22 06:16 -36.67457 166.16164 41175 ft 503 kts 101°
2026-04-22 06:17 -36.68738 166.24752 41178 ft 504 kts 101°
2026-04-22 06:17 -36.70011 166.33339 41178 ft 505 kts 101°
2026-04-22 06:18 -36.71279 166.41932 41179 ft 504 kts 101°
2026-04-22 06:18 -36.72541 166.50525 41185 ft 503 kts 101°
2026-04-22 06:19 -36.73795 166.59113 41183 ft 504 kts 101°
2026-04-22 06:19 -36.75039 166.67674 41181 ft 505 kts 101°
2026-04-22 06:20 -36.76283 166.76284 41179 ft 504 kts 101°
2026-04-22 06:20 -36.77520 166.84890 41177 ft 503 kts 101°
2026-04-22 06:21 -36.78751 166.93498 41180 ft 505 kts 101°
2026-04-22 06:21 -36.79977 167.02122 41185 ft 505 kts 100°
2026-04-22 06:22 -36.81199 167.10762 41184 ft 505 kts 100°
2026-04-22 06:22 -36.82417 167.19421 41185 ft 505 kts 100°
2026-04-22 06:23 -36.83626 167.28056 41186 ft 506 kts 100°
2026-04-22 06:23 -36.84832 167.36729 41189 ft 507 kts 100°
2026-04-22 06:24 -36.86620 167.49686 41189 ft 507 kts 100°
2026-04-22 06:25 -36.87822 167.58416 41188 ft 507 kts 100°
2026-04-22 06:25 -36.89004 167.67107 41179 ft 507 kts 100°
2026-04-22 06:26 -36.90183 167.75746 41178 ft 508 kts 99°
2026-04-22 06:26 -36.91347 167.84423 41179 ft 507 kts 99°
2026-04-22 06:27 -36.92515 167.93101 41177 ft 506 kts 99°
2026-04-22 06:27 -36.93673 168.01802 41185 ft 509 kts 99°
2026-04-22 06:28 -36.94832 168.10535 41187 ft 509 kts 99°
2026-04-22 06:28 -36.95982 168.19260 41184 ft 509 kts 99°
2026-04-22 06:29 -36.97126 168.27989 41182 ft 509 kts 99°
2026-04-22 06:29 -36.98260 168.36694 41182 ft 511 kts 99°
2026-04-22 06:30 -36.99404 168.45531 41185 ft 510 kts 99°
2026-04-22 06:30 -37.00532 168.54293 41183 ft 511 kts 99°
2026-04-22 06:31 -37.01647 168.63006 41182 ft 510 kts 99°
2026-04-22 06:31 -37.02765 168.71793 41182 ft 511 kts 99°
2026-04-22 06:32 -37.03876 168.80584 41181 ft 512 kts 99°
2026-04-22 06:32 -37.04984 168.89400 41180 ft 512 kts 99°
2026-04-22 06:33 -37.06081 168.98195 41182 ft 512 kts 99°
2026-04-22 06:33 -37.06994 169.05543 41189 ft 512 kts 99°
2026-04-22 06:34 -37.08080 169.14346 41179 ft 512 kts 98°
2026-04-22 06:34 -37.09164 169.23183 41182 ft 512 kts 98°
2026-04-22 06:35 -37.10241 169.32015 41184 ft 513 kts 98°
2026-04-22 06:35 -37.11309 169.40839 41186 ft 512 kts 98°
2026-04-22 06:36 -37.12377 169.49709 41184 ft 516 kts 98°
2026-04-22 06:36 -37.13434 169.58556 41180 ft 514 kts 98°
2026-04-22 06:37 -37.14488 169.67423 41181 ft 514 kts 98°
2026-04-22 06:37 -37.15532 169.76273 41180 ft 515 kts 98°
2026-04-22 06:38 -37.16574 169.85164 41184 ft 515 kts 98°
2026-04-22 06:38 -37.17612 169.94078 41182 ft 516 kts 98°
2026-04-22 06:39 -37.18634 170.02909 41178 ft 515 kts 98°
2026-04-22 06:39 -37.19657 170.11816 41180 ft 516 kts 98°
2026-04-22 06:40 -37.20674 170.20727 41180 ft 518 kts 98°
2026-04-22 06:40 -37.21688 170.29675 41180 ft 516 kts 97°
2026-04-22 06:41 -37.22696 170.38632 41186 ft 519 kts 97°
2026-04-22 06:41 -37.23694 170.47567 41187 ft 517 kts 97°
2026-04-22 06:42 -37.24690 170.56542 41182 ft 518 kts 97°
2026-04-22 06:42 -37.25661 170.65520 41177 ft 520 kts 93°
2026-04-22 06:43 -37.25516 170.74498 41174 ft 516 kts 84°
2026-04-22 06:43 -37.25161 170.83541 41176 ft 518 kts 88°
2026-04-22 06:44 -37.24980 170.92592 41171 ft 517 kts 85°
2026-04-22 06:44 -37.24654 171.01651 41169 ft 518 kts 87°
2026-04-22 06:45 -37.24424 171.10721 41171 ft 519 kts 86°
2026-04-22 06:45 -37.24120 171.19792 41172 ft 519 kts 86°
2026-04-22 06:46 -37.23844 171.28854 41166 ft 519 kts 86°
2026-04-22 06:46 -37.23541 171.37932 41167 ft 520 kts 86°
2026-04-22 06:47 -37.23244 171.47021 41165 ft 520 kts 86°
2026-04-22 06:47 -37.22935 171.56053 41162 ft 520 kts 86°
2026-04-22 06:48 -37.22620 171.65136 41155 ft 520 kts 86°
2026-04-22 06:48 -37.22297 171.74232 41154 ft 522 kts 86°
2026-04-22 06:49 -37.21676 171.83282 41153 ft 520 kts 85°
2026-04-22 06:49 -37.21612 171.92396 41146 ft 522 kts 89°
2026-04-22 06:50 -37.21319 172.01495 41148 ft 521 kts 83°
2026-04-22 06:50 -37.20906 172.10586 41085 ft 523 kts 86°
2026-04-22 06:50 -37.20791 172.15149 40626 ft 524 kts 85°
2026-04-22 06:51 -37.20601 172.19725 39970 ft 526 kts 84°
2026-04-22 06:51 -37.20376 172.24313 39324 ft 528 kts 85°
2026-04-22 06:51 -37.20189 172.28919 38606 ft 530 kts 86°
2026-04-22 06:51 -37.20026 172.33534 37900 ft 529 kts 86°
2026-04-22 06:52 -37.19842 172.38132 37202 ft 527 kts 85°
2026-04-22 06:52 -37.19637 172.42720 36484 ft 526 kts 85°
2026-04-22 06:52 -37.19441 172.47292 35755 ft 525 kts 86°
2026-04-22 06:52 -37.19254 172.51872 35007 ft 525 kts 86°
2026-04-22 06:53 -37.19064 172.56440 34257 ft 524 kts 86°
2026-04-22 06:53 -37.18866 172.60940 33488 ft 523 kts 86°
2026-04-22 06:53 -37.18667 172.65475 32762 ft 518 kts 87°
2026-04-22 06:53 -37.18472 172.69970 32051 ft 513 kts 87°
2026-04-22 06:54 -37.18277 172.74408 31346 ft 507 kts 87°
2026-04-22 06:54 -37.18081 172.78799 30656 ft 502 kts 87°
2026-04-22 06:54 -37.17884 172.83147 29940 ft 496 kts 87°
2026-04-22 06:54 -37.17691 172.87435 29255 ft 489 kts 87°
2026-04-22 06:55 -37.17498 172.91662 28600 ft 482 kts 87°
2026-04-22 06:55 -37.17306 172.95833 27954 ft 475 kts 88°
2026-04-22 06:55 -37.17115 172.99939 27323 ft 469 kts 87°
2026-04-22 06:55 -37.16925 173.04012 26691 ft 464 kts 88°
2026-04-22 06:56 -37.16736 173.08027 26067 ft 459 kts 88°
2026-04-22 06:56 -37.16546 173.11946 25477 ft 454 kts 88°
2026-04-22 06:56 -37.16364 173.15873 24882 ft 449 kts 88°
2026-04-22 06:56 -37.16179 173.19775 24281 ft 446 kts 89°
2026-04-22 06:57 -37.15991 173.23636 23696 ft 442 kts 88°
2026-04-22 06:57 -37.15802 173.27459 23083 ft 437 kts 89°
2026-04-22 06:57 -37.15618 173.31238 22496 ft 431 kts 88°
2026-04-22 06:57 -37.15436 173.34960 21949 ft 425 kts 88°
2026-04-22 06:58 -37.15253 173.38635 21374 ft 420 kts 89°
2026-04-22 06:58 -37.15070 173.42263 20836 ft 415 kts 89°
2026-04-22 06:58 -37.14888 173.45849 20290 ft 410 kts 88°
2026-04-22 06:58 -37.14685 173.49400 19758 ft 405 kts 87°
2026-04-22 06:59 -37.14462 173.52902 19237 ft 401 kts 88°
2026-04-22 06:59 -37.14254 173.56378 18719 ft 397 kts 88°
2026-04-22 06:59 -37.14052 173.59823 18180 ft 395 kts 88°
2026-04-22 06:59 -37.13853 173.63182 17662 ft 389 kts 88°
2026-04-22 07:00 -37.13650 173.66526 17168 ft 382 kts 88°
2026-04-22 07:00 -37.13450 173.69818 16759 ft 373 kts 89°
2026-04-22 07:00 -37.13257 173.73014 16356 ft 366 kts 88°
2026-04-22 07:00 -37.13064 173.76178 15875 ft 362 kts 88°
2026-04-22 07:01 -37.12870 173.79307 15397 ft 358 kts 89°
2026-04-22 07:01 -37.12680 173.82394 14927 ft 353 kts 89°
2026-04-22 07:01 -37.12493 173.85452 14463 ft 349 kts 89°
2026-04-22 07:01 -37.12307 173.88459 13998 ft 344 kts 88°
2026-04-22 07:02 -37.12120 173.91432 13543 ft 340 kts 88°
2026-04-22 07:02 -37.11936 173.94401 13077 ft 343 kts 88°
2026-04-22 07:02 -37.11752 173.97354 12626 ft 338 kts 87°
2026-04-22 07:02 -37.11567 174.00256 12183 ft 331 kts 88°
2026-04-22 07:03 -37.11388 174.03100 11749 ft 324 kts 88°
2026-04-22 07:03 -37.11210 174.05890 11328 ft 318 kts 87°
2026-04-22 07:03 -37.11034 174.08626 10905 ft 313 kts 87°
2026-04-22 07:03 -37.10867 174.11285 10495 ft 307 kts 87°
2026-04-22 07:04 -37.10698 174.13931 10095 ft 302 kts 86°
2026-04-22 07:04 -37.10526 174.16531 9689 ft 297 kts 86°
2026-04-22 07:04 -37.10358 174.19083 9283 ft 291 kts 86°
2026-04-22 07:04 -37.10199 174.21582 8901 ft 285 kts 86°
2026-04-22 07:05 -37.10037 174.24031 8531 ft 279 kts 86°
2026-04-22 07:05 -37.09879 174.26431 8166 ft 274 kts 86°
2026-04-22 07:05 -37.09724 174.28784 7798 ft 269 kts 86°
2026-04-22 07:05 -37.09565 174.31171 7412 ft 279 kts 87°
2026-04-22 07:06 -37.09407 174.33573 7018 ft 275 kts 87°
2026-04-22 07:06 -37.09249 174.35936 6654 ft 270 kts 86°
2026-04-22 07:06 -37.09093 174.38261 6286 ft 265 kts 87°
2026-04-22 07:06 -37.08941 174.40536 5939 ft 259 kts 87°
2026-04-22 07:07 -37.08791 174.42763 5595 ft 255 kts 87°
2026-04-22 07:07 -37.08642 174.44962 5257 ft 250 kts 87°
2026-04-22 07:07 -37.08497 174.47109 4938 ft 245 kts 87°
2026-04-22 07:07 -37.08412 174.49206 4603 ft 238 kts 93°
2026-04-22 07:08 -37.08394 174.51257 4297 ft 233 kts 88°
2026-04-22 07:08 -37.08155 174.53200 4009 ft 218 kts 79°
2026-04-22 07:08 -37.07711 174.54935 3719 ft 200 kts 75°
2026-04-22 07:08 -37.07276 174.56490 3456 ft 175 kts 75°
2026-04-22 07:09 -37.06909 174.57820 3236 ft 154 kts 76°
2026-04-22 07:09 -37.06575 174.59059 3006 ft 146 kts 76°
2026-04-22 07:09 -37.06243 174.60257 3013 ft 153 kts 76°
2026-04-22 07:09 -37.05914 174.61468 3007 ft 150 kts 76°
2026-04-22 07:10 -37.05580 174.62675 2999 ft 148 kts 77°
2026-04-22 07:10 -37.05249 174.63887 2991 ft 143 kts 72°
2026-04-22 07:10 -37.04917 174.65126 2808 ft 145 kts 76°
2026-04-22 07:10 -37.04567 174.66263 2383 ft 137 kts 75°
2026-04-22 07:11 -37.04216 174.67352 1931 ft 133 kts 76°
2026-04-22 07:11 -37.03872 174.68442 1404 ft 142 kts 80°
2026-04-22 07:11 -37.03601 174.69684 1127 ft 150 kts 80°
2026-04-22 07:11 -37.03366 174.70947 950 ft 149 kts 75°
2026-04-22 07:12 -37.03036 174.72190 725 ft 152 kts 69°
2026-04-22 07:12 -37.02643 174.73403 545 ft 149 kts 69°
2026-04-22 07:12 -37.02291 174.74620 368 ft 148 kts 73°
2026-04-22 07:12 -37.01975 174.75832 217 ft 145 kts 71°
2026-04-22 07:13 -37.01642 174.77011 97 ft 141 kts 70°
2026-04-22 07:13 -37.01382 174.77975 31 ft 72 kts 71°
2026-04-22 07:13 -37.01300 174.78260 31 ft 15 kts 61°
2026-04-22 07:13 -37.01289 174.78270 31 ft 1 kts 24°
2026-04-22 07:14 -37.01258 174.78259 31 ft 14 kts 327°
2026-04-22 07:14 -37.01166 174.78108 31 ft 27 kts 346°
2026-04-22 07:14 -37.00944 174.78103 31 ft 38 kts 332°
2026-04-22 07:14 -37.00762 174.78019 31 ft 18 kts
2026-04-22 07:15 -37.00673 174.78074 31 ft 13 kts 53°
2026-04-22 07:15 -37.00665 174.78145 31 ft 2 kts 109°
2026-04-22 07:15 -37.00666 174.78147 31 ft 0 kts 111°